Volver al catálogo

FENGYUN 1C DEB

LostSSO
NORAD 31518·DEBRIS·🇨🇳 China

Lanzado May 10, 1999 desde Taiyuan Satellite Launch Center

Loading…

Próximos Pases (próximas 24 horas)

TLE

ObsoletoSource: Space-Track

Época: Nov 11, 2017, 16:30 UTC

1 31518U 99025BXH 17315.68762109 +.00001196 +00000-0 +71446-3 0  9991
2 31518 099.1743 281.2477 0097542 138.7924 221.9796 14.06800122536166

Sigue FENGYUN 1C DEB en tiempo real con AllMySat

Download on the App Store